H1 CPF 2 NER 2023 10 18 9 291 01 glonass135 H2 1600801 9135 41330 2023 10 18 0 0 0 2023 10 21 23 45 0 900 1 1 0 0 0 1 H9 10 0 60235 0.00000 0 13700688.955 -18280560.360 -11386854.218 10 0 60235 900.00000 0 14493987.184 -19233607.669 -8467504.819 10 0 60235 1800.00000 0 14956778.052 -19978724.057 -5384052.037 10 0 60235 2700.00000 0 15112970.103 -20462891.775 -2196282.532 10 0 60235 3600.00000 0 14997548.568 -20640894.223 1034031.650 10 0 60235 4500.00000 0 14654883.489 -20477336.774 4244323.249 10 0 60235 5400.00000 0 14136658.595 -19948272.893 7372433.221 10 0 60235 6300.00000 0 13499508.458 -19042367.638 10357804.712 10 0 60235 7200.00000 0 12802463.369 -17761549.842 13142645.155 10 0 60235 8100.00000 0 12104309.057 -16121125.387 15673034.810 10 0 60235 9000.00000 0 11460971.722 -14149346.179 17899961.201 10 0 60235 9900.00000 0 10923037.641 -11886451.736 19780260.304 10 0 60235 10800.00000 0 10533510.919 -9383221.979 21277447.147 10 0 60235 11700.00000 0 10325903.115 -6699099.706 22362420.456 10 0 60235 12600.00000 0 10322734.798 -3899958.963 23014028.207 10 0 60235 13500.00000 0 10534512.179 -1055609.995 23219483.306 10 0 60235 14400.00000 0 10959222.426 1762857.575 22974621.199 10 0 60235 15300.00000 0 11582370.014 4485784.791 22283993.828 10 0 60235 16200.00000 0 12377554.033 7047595.587 21160797.191 10 0 60235 17100.00000 0 13307563.932 9389282.081 19626632.624 10 0 60235 18000.00000 0 14325949.452 11460620.174 17711104.973 10 0 60235 18900.00000 0 15379000.324 13222023.413 15451263.870 10 0 60235 19800.00000 0 16408053.768 14645957.624 12890897.440 10 0 60235 20700.00000 0 17352033.351 15717856.761 10079690.916 10 0 60235 21600.00000 0 18150112.387 16436501.082 7072265.566 10 0 60235 22500.00000 0 18744389.029 16813841.359 3927116.175 10 0 60235 23400.00000 0 19082459.051 16874276.216 705467.852 10 0 60235 24300.00000 0 19119776.058 16653413.149 -2529925.020 10 0 60235 25200.00000 0 18821697.539 16196366.001 -5716013.258 10 0 60235 26100.00000 0 18165128.276 15555661.710 -8790695.321 10 0 60235 27000.00000 0 17139689.799 14788846.149 -11694041.967 10 0 60235 27900.00000 0 15748364.833 13955891.858 -14369477.664 10 0 60235 28800.00000 0 14007588.303 13116519.021 -16764894.283 10 0 60235 29700.00000 0 11946780.253 12327544.570 -18833674.230 10 0 60235 30600.00000 0 9607339.926 11640372.870 -20535602.320 10 0 60235 31500.00000 0 7041143.290 11098734.957 -21837648.344 10 0 60235 32400.00000 0 4308607.261 10736772.289 -22714605.201 10 0 60235 33300.00000 0 1476401.995 10577545.805 -23149570.765 10 0 60235 34200.00000 0 -1385092.796 10632032.647 -23134264.938 10 0 60235 35100.00000 0 -4204481.218 10898651.884 -22669176.831 10 0 60235 36000.00000 0 -6912082.221 11363337.993 -21763540.360 10 0 60235 36900.00000 0 -9442585.050 12000157.693 -20435139.917 10 0 60235 37800.00000 0 -11737519.613 12772442.831 -18709950.932 10 0 60235 38700.00000 0 -13747440.359 13634390.480 -16621623.221 10 0 60235 39600.00000 0 -15433734.483 14533062.010 -14210817.843 10 0 60235 40500.00000 0 -16769981.214 15410696.348 -11524410.827 10 0 60235 41400.00000 0 -17742807.709 16207239.819 -8614579.517 10 0 60235 42300.00000 0 -18352208.075 16862986.059 -5537789.362 10 0 60235 43200.00000 0 -18611314.344 17321215.164 -2353700.777 10 0 60235 44100.00000 0 -18545630.918 17530721.447 875982.971 10 0 60235 45000.00000 0 -18191766.148 17448123.940 4088704.793 10 0 60235 45900.00000 0 -17595715.412 17039862.991 7222257.160 10 0 60235 46800.00000 0 -16810768.470 16283799.390 10215977.124 10 0 60235 47700.00000 0 -15895129.210 15170348.987 13011910.510 10 0 60235 48600.00000 0 -14909347.575 13703105.042 15555923.565 10 0 60235 49500.00000 0 -13913671.014 11898921.599 17798741.456 10 0 60235 50400.00000 0 -12965425.921 9787453.413 19696894.393 10 0 60235 51300.00000 0 -12116538.167 7410170.204 21213553.947 10 0 60235 52200.00000 0 -11411295.964 4818884.521 22319244.137 10 0 60235 53100.00000 0 -10884448.354 2073852.486 22992413.978 10 0 60235 54000.00000 0 -10559718.808 -758475.808 23219860.651 10 0 60235 54900.00000 0 -10448796.399 -3607965.009 22996994.946 10 0 60235 55800.00000 0 -10550847.421 -6403460.105 22327943.258 10 0 60235 56700.00000 0 -10852568.898 -9075500.018 21225483.262 10 0 60235 57600.00000 0 -11328783.010 -11558967.785 19710813.250 10 0 60235 58500.00000 0 -11943548.848 -13795567.977 17813158.131 10 0 60235 59400.00000 0 -12651746.192 -15736028.607 15569218.171 10 0 60235 60300.00000 0 -13401065.849 -17341935.669 13022469.665 10 0 60235 61200.00000 0 -14134323.508 -18587123.220 10222329.836 10 0 60235 62100.00000 0 -14791999.845 -19458560.234 7223201.255 10 0 60235 63000.00000 0 -15314899.358 -19956696.335 4083413.877 10 0 60235 63900.00000 0 -15646814.702 -20095251.358 864085.337 10 0 60235 64800.00000 0 -15737082.479 -19900457.314 -2372077.744 10 0 60235 65700.00000 0 -15542920.571 -19409784.842 -5562013.111 10 0 60235 66600.00000 0 -15031446.134 -18670208.448 -8643545.440 10 0 60235 67500.00000 0 -14181286.879 -17736084.786 -11556612.376 10 0 60235 68400.00000 0 -12983715.627 -16666734.946 -14244448.558 10 0 60235 69300.00000 0 -11443258.698 -15523834.449 -16654703.113 10 0 60235 70200.00000 0 -9577751.264 -14368722.759 -18740467.649 10 0 60235 71100.00000 0 -7417836.619 -13259747.298 -20461194.016 10 0 60235 72000.00000 0 -5005930.076 -12249755.155 -21783483.569 10 0 60235 72900.00000 0 -2394690.966 -11383838.807 -22681732.732 10 0 60235 73800.00000 0 354933.084 -10697430.949 -23138622.825 10 0 60235 74700.00000 0 3176007.533 -10214828.159 -23145445.448 10 0 60235 75600.00000 0 5998161.718 -9948204.558 -22702258.175 10 0 60235 76500.00000 0 8750282.719 -9897155.598 -21817868.672 10 0 60235 77400.00000 0 11363240.383 -10048789.542 -20509648.708 10 0 60235 78300.00000 0 13772530.720 -10378361.124 -18803182.720 10 0 60235 79200.00000 0 15920728.703 -10850419.055 -16731758.646 10 0 60235 80100.00000 0 17759649.755 -11420417.718 -14335711.656 10 0 60235 81000.00000 0 19252131.589 -12036724.017 -11661633.998 10 0 60235 81900.00000 0 20373364.081 -12642934.167 -8761466.612 10 0 60235 82800.00000 0 21111713.670 -13180402.365 -5691490.277 10 0 60235 83700.00000 0 21469009.923 -13590874.782 -2511235.827 10 0 60235 84600.00000 0 21460284.107 -13819118.063 717665.630 10 0 60235 85500.00000 0 21112972.348 -13815431.989 3932670.504 10 0 60236 0.00000 0 20465618.090 -13537940.946 7071525.670 10 0 60236 900.00000 0 19566128.665 -12954567.960 10073465.554 10 0 60236 1800.00000 0 18469660.433 -12044608.903 12880376.645 10 0 60236 2700.00000 0 17236219.940 -10799840.189 15437913.341 10 0 60236 3600.00000 0 15928082.095 -9225113.330 17696540.190 10 0 60236 4500.00000 0 14607132.548 -7338410.468 19612482.947 10 0 60236 5400.00000 0 13332244.811 -5170357.227 21148570.631 10 0 60236 6300.00000 0 12156801.009 -2763211.482 22274953.049 10 0 60236 7200.00000 0 11126459.263 -169368.118 22969680.380 10 0 60236 8100.00000 0 10277260.508 2550560.259 23219133.857 10 0 60236 9000.00000 0 9634153.722 5330009.212 23018299.051 10 0 60236 9900.00000 0 9210001.357 8098983.045 22370875.947 10 0 60236 10800.00000 0 9005107.102 10786727.310 21289222.770 10 0 60236 11700.00000 0 9007286.546 13324443.829 19794133.396 10 0 60236 12600.00000 0 9192478.790 15647936.400 17914451.225 10 0 60236 13500.00000 0 9525874.424 17700077.632 15686525.423 10 0 60236 14400.00000 0 9963513.423 19432994.142 13153518.562 10 0 60236 15300.00000 0 10454286.443 20809878.435 10364577.826 10 0 60236 16200.00000 0 10942255.459 21806350.980 7373884.933 10 0 60236 17100.00000 0 11369195.609 22411314.530 4239602.726 10 0 60236 18000.00000 0 11677250.110 22627263.955 1022738.997 10 0 60236 18900.00000 0 11811584.678 22470037.961 -2214049.833 10 0 60236 19800.00000 0 11722927.459 21968022.846 -5407690.869 10 0 60236 20700.00000 0 11369884.972 21160842.027 -8495937.384 10 0 60236 21600.00000 0 10720933.959 20097587.238 -11418596.177 10 0 60236 22500.00000 0 9756002.877 18834667.039 -14118714.177 10 0 60236 23400.00000 0 8467574.368 17433364.781 -16543699.684 10 0 60236 24300.00000 0 6861260.735 15957210.484 -18646355.257 10 0 60236 25200.00000 0 4955827.110 14469278.843 -20385801.320 10 0 60236 26100.00000 0 2782660.708 13029528.366 -21728272.158 10 0 60236 27000.00000 0 384708.210 11692294.446 -22647768.881 10 0 60236 27900.00000 0 -2185074.169 10504042.030 -23126557.194 10 0 60236 28800.00000 0 -4865692.877 9501472.053 -23155501.060 10 0 60236 29700.00000 0 -7590428.862 8710060.279 -22734226.849 10 0 60236 30600.00000 0 -10289392.504 8143088.528 -21871115.923 10 0 60236 31500.00000 0 -12892215.203 7801207.216 -20583126.945 10 0 60236 32400.00000 0 -15330765.918 7672545.620 -18895452.438 10 0 60236 33300.00000 0 -17541780.218 7733363.205 -16841017.150 10 0 60236 34200.00000 0 -19469293.427 7949212.755 -14459828.706 10 0 60236 35100.00000 0 -21066777.798 8276564.716 -11798193.656 10 0 60236 36000.00000 0 -22298896.267 8664823.105 -8907814.446 10 0 60236 36900.00000 0 -23142801.296 9058647.149 -5844784.975 10 0 60236 37800.00000 0 -23588926.382 9400480.355 -2668504.219 10 0 60236 38700.00000 0 -23641238.855 9633180.220 559471.218 10 0 60236 39600.00000 0 -23316944.909 9702637.910 3776613.644 10 0 60236 40500.00000 0 -22645660.467 9560277.743 6920627.353 10 0 60236 41400.00000 0 -21668083.490 9165331.600 9930645.543 10 0 60236 42300.00000 0 -20434223.800 8486792.730 12748398.513 10 0 60236 43200.00000 0 -19001264.620 7504966.885 15319331.384 10 0 60236 44100.00000 0 -17431145.003 6212555.362 17593650.600 10 0 60236 45000.00000 0 -15787963.665 4615223.830 19527279.826 10 0 60236 45900.00000 0 -14135311.884 2731632.031 21082707.671 10 0 60236 46800.00000 0 -12533645.926 592921.481 22229711.576 10 0 60236 47700.00000 0 -11037807.766 -1758319.400 22945944.371 10 0 60236 48600.00000 0 -9694796.794 -4269571.856 23217372.421 10 0 60236 49500.00000 0 -8541884.883 -6880324.400 23038556.742 10 0 60236 50400.00000 0 -7605153.308 -9524353.192 22412771.148 10 0 60236 51300.00000 0 -6898512.653 -12132252.597 21351954.213 10 0 60236 52200.00000 0 -6423247.069 -14634112.534 19876494.789 10 0 60236 53100.00000 0 -6168102.630 -16962232.572 18014853.754 10 0 60236 54000.00000 0 -6109916.827 -19053760.534 15803027.779 10 0 60236 54900.00000 0 -6214763.561 -20853145.840 13283863.974 10 0 60236 55800.00000 0 -6439566.116 -22314304.767 10506237.451 10 0 60236 56700.00000 0 -6734110.445 -23402406.360 7524106.790 10 0 60236 57600.00000 0 -7043373.761 -24095203.119 4395465.240 10 0 60236 58500.00000 0 -7310069.420 -24383849.520 1181208.108 10 0 60236 59400.00000 0 -7477299.374 -24273172.972 -2056061.152 10 0 60236 60300.00000 0 -7491200.365 -23781385.101 -5253261.895 10 0 60236 61200.00000 0 -7303469.931 -22939245.210 -8348078.975 10 0 60236 62100.00000 0 -6873663.176 -21788711.356 -11280191.402 10 0 60236 63000.00000 0 -6171161.015 -20381136.540 -13992461.460 10 0 60236 63900.00000 0 -5176724.705 -18775087.074 -16432059.641 10 0 60236 64800.00000 0 -3883569.349 -17033876.313 -18551502.295 10 0 60236 65700.00000 0 -2297909.795 -15222918.923 -20309580.991 10 0 60236 66600.00000 0 -438955.093 -13407018.211 -21672165.111 10 0 60236 67500.00000 0 1661648.718 -11647701.415 -22612862.145 10 0 60236 68400.00000 0 3960904.281 -10000715.278 -23113523.326 10 0 60236 69300.00000 0 6406031.413 -8513786.876 -23164585.566 10 0 60236 70200.00000 0 8936452.652 -7224742.863 -22765244.067 10 0 60236 71100.00000 0 11486112.706 -6160064.694 -21923453.416 10 0 60236 72000.00000 0 13986034.932 -5333938.633 -20655758.245 10 0 60236 72900.00000 0 16367008.374 -4747838.292 -18986957.810 10 0 60236 73800.00000 0 18562293.795 -4390654.956 -16949611.924 10 0 60236 74700.00000 0 20510236.552 -4239367.963 -14583398.542 10 0 60236 75600.00000 0 22156678.413 -4260224.899 -11934336.023 10 0 60236 76500.00000 0 23457068.944 -4410380.166 -9053885.470 10 0 60236 77400.00000 0 24378189.757 -4639921.583 -5997950.751 10 0 60236 78300.00000 0 24899421.103 -4894198.651 -2825795.605 10 0 60236 79200.00000 0 25013499.410 -5116353.831 401101.376 10 0 60236 80100.00000 0 24726735.423 -5249949.947 3620231.913 10 0 60236 81000.00000 0 24058685.016 -5241583.027 6769260.849 10 0 60236 81900.00000 0 23041287.272 -5043370.763 9787223.887 10 0 60236 82800.00000 0 21717506.407 -4615212.043 12615697.697 10 0 60236 83700.00000 0 20139534.428 -3926722.643 15199920.593 10 0 60236 84600.00000 0 18366629.356 -2958765.666 17489842.956 10 0 60236 85500.00000 0 16462678.716 -1704512.022 19441087.983 10 0 60237 0.00000 0 14493589.282 -169985.828 21015804.955 10 0 60237 900.00000 0 12524609.806 1625930.331 22183400.018 10 0 60237 1800.00000 0 10617699.904 3652030.116 22921128.892 10 0 60237 2700.00000 0 8829050.167 5865840.680 23214543.076 10 0 60237 3600.00000 0 7206858.553 8215158.766 23057778.653 10 0 60237 4500.00000 0 5789454.095 10640004.845 22453682.493 10 0 60237 5400.00000 0 4603846.028 13074916.188 21413772.390 10 0 60237 6300.00000 0 3664758.886 15451485.456 19958030.705 10 0 60237 7200.00000 0 2974194.229 17701040.667 18114534.030 10 0 60237 8100.00000 0 2521537.824 19757355.919 15918924.527 10 0 60237 9000.00000 0 2284208.353 21559280.192 13413731.636 10 0 60237 9900.00000 0 2228820.944 23053174.210 10647556.026 10 0 60237 10800.00000 0 2312816.816 24195052.710 7674130.643 10 0 60237 11700.00000 0 2486490.324 24952341.245 4551276.560 10 0 60237 12600.00000 0 2695327.316 25305172.479 1339773.950 10 0 60237 13500.00000 0 2882554.990 25247166.195 -1897829.358 10 0 60237 14400.00000 0 2991793.942 24785659.080 -5098447.586 10 0 60237 15300.00000 0 2969698.345 23941373.853 -8199699.684 10 0 60237 16200.00000 0 2768470.421 22747541.348 -11141139.225 10 0 60237 17100.00000 0 2348140.666 21248512.727 -13865446.009 10 0 60237 18000.00000 0 1678515.329 19497920.884 -16319554.650 10 0 60237 18900.00000 0 740707.061 17556469.427 -18455696.992 10 0 60237 19800.00000 0 -471817.366 15489443.360 -20232337.226 10 0 60237 20700.00000 0 -1952717.408 13364047.236 -21614981.093 10 0 60237 21600.00000 0 -3682809.701 11246683.478 -22576843.488 10 0 60237 22500.00000 0 -5630648.550 9200285.537 -23099361.952 10 0 60237 23400.00000 0 -7753631.549 7281817.749 -23172546.819 10 0 60237 24300.00000 0 -9999583.815 5540046.029 -22795162.254 10 0 60237 25200.00000 0 -12308754.284 4013671.599 -21974735.789 10 0 60237 26100.00000 0 -14616140.397 2729904.243 -20727397.299 10 0 60237 27000.00000 0 -16854044.032 1703532.732 -19077551.616 10 0 60237 27900.00000 0 -18954752.140 936528.966 -17057392.047 10 0 60237 28800.00000 0 -20853230.596 418200.020 -14706264.966 10 0 60237 29700.00000 0 -22489719.490 125879.274 -12069898.367 10 0 60237 30600.00000 0 -23812122.410 26125.410 -9199509.665 10 0 60237 31500.00000 0 -24778091.010 76377.052 -6150810.255 10 0 60237 32400.00000 0 -25356718.953 226991.953 -2982926.127 10 0 60237 33300.00000 0 -25529775.665 423583.879 242744.675 10 0 60237 34200.00000 0 -25292429.451 609558.187 3463715.850 10 0 60237 35100.00000 0 -24653430.769 728739.035 6617615.378 10 0 60237 36000.00000 0 -23634748.715 727977.617 9643384.073 10 0 60237 36900.00000 0 -22270676.402 559631.786 12482447.568 10 0 60237 37800.00000 0 -20606442.675 183812.954 15079839.887 10 0 60237 38700.00000 0 -18696387.850 -429694.138 17385257.737 10 0 60237 39600.00000 0 -16601778.975 -1299919.542 19354026.023 10 0 60237 40500.00000 0 -14388354.743 -2433668.108 20947956.804 10 0 60237 41400.00000 0 -12123701.160 -3824995.873 22136085.874 10 0 60237 42300.00000 0 -9874565.990 -5455226.199 22895273.242 10 0 60237 43200.00000 0 -7704222.428 -7293506.825 23210656.190 10 0 60237 44100.00000 0 -5669990.534 -9297886.761 23075946.076 10 0 60237 45000.00000 0 -3821018.666 -11416870.459 22493562.621 10 0 60237 45900.00000 0 -2196416.646 -13591386.833 21474602.246 10 0 60237 46800.00000 0 -823818.120 -15757093.239 20038639.863 10 0 60237 47700.00000 0 281567.844 -17846920.112 18213366.490 10 0 60237 48600.00000 0 1117376.053 -19793751.406 16034068.190 10 0 60237 49500.00000 0 1693957.420 -21533129.548 13542954.863 10 0 60237 50400.00000 0 2033709.046 -23005871.828 10788350.623 10 0 60237 51300.00000 0 2169890.024 -24160488.068 7823760.472 10 0 60237 52200.00000 0 2144972.832 -24955297.177 4706830.841 10 0 60237 53100.00000 0 2008600.183 -25360152.249 1498224.206 10 0 60237 54000.00000 0 1815234.465 -25357700.186 -1739569.861 10 0 60237 54900.00000 0 1621600.421 -24944121.344 -4943463.133 10 0 60237 55800.00000 0 1484030.956 -24129316.865 -8051011.357 10 0 60237 56700.00000 0 1455830.351 -22936534.980 -11001645.392 10 0 60237 57600.00000 0 1584768.610 -21401451.702 -13737865.250 10 0 60237 58500.00000 0 1910814.982 -19570744.783 -16206372.295 10 0 60237 59400.00000 0 2464208.361 -17500221.522 -18359116.346 10 0 60237 60300.00000 0 3263947.602 -15252579.981 -20154236.461 10 0 60237 61200.00000 0 4316766.573 -12894898.618 -21556876.655 10 0 60237 62100.00000 0 5616637.845 -10495960.532 -22539860.741 10 0 60237 63000.00000 0 7144826.181 -8123525.056 -23084213.610 10 0 60237 63900.00000 0 8870489.569 -5841661.129 -23179519.577 10 0 60237 64800.00000 0 10751802.307 -3708253.665 -22824111.844 10 0 60237 65700.00000 0 12737552.709 -1772786.246 -22025090.501 10 0 60237 66600.00000 0 14769148.151 -74491.419 -20798169.857 10 0 60237 67500.00000 0 16782943.285 1359056.058 -19167359.119 10 0 60237 68400.00000 0 18712793.987 2512846.464 -17164483.501 10 0 60237 69300.00000 0 20492730.335 3384807.407 -14828555.850 10 0 60237 70200.00000 0 22059637.271 3985628.126 -12205011.490 10 0 60237 71100.00000 0 23355831.444 4338045.623 -9344821.505 10 0 60237 72000.00000 0 24331427.268 4475624.797 -6303501.867 10 0 60237 72900.00000 0 24946394.146 4441085.679 -3140037.646 10 0 60237 73800.00000 0 25172219.785 4284249.524 84256.979 10 0 60237 74700.00000 0 24993110.965 4059691.173 3306921.035 10 0 60237 75600.00000 0 24406682.346 3824197.031 6465548.905 10 0 60237 76500.00000 0 23424105.166 3634135.874 9498989.594 10 0 60237 77400.00000 0 22069709.907 3542853.072 12348520.521 10 0 60237 78300.00000 0 20380059.608 3598197.635 14958973.919 10 0 60237 79200.00000 0 18402532.093 3840285.843 17279794.973 10 0 60237 80100.00000 0 16193469.583 4299595.331 19266012.072 10 0 60237 81000.00000 0 13815971.753 4995469.809 20879101.356 10 0 60237 81900.00000 0 11337422.795 5935097.686 22087729.592 10 0 60237 82800.00000 0 8826853.956 7113008.372 22868361.590 10 0 60237 83700.00000 0 6352249.694 8511108.786 23205720.695 10 0 60237 84600.00000 0 3977907.996 10099260.387 23093093.400 10 0 60237 85500.00000 0 1761963.389 11836374.779 22532471.708 10 0 60238 0.00000 0 -245825.133 13671984.193 21534529.768 10 0 60238 900.00000 0 -2005930.843 15548224.499 20118433.433 10 0 60238 1800.00000 0 -3490480.923 17402147.392 18311486.403 10 0 60238 2700.00000 0 -4684187.190 19168269.890 16148616.499 10 0 60238 3600.00000 0 -5584744.029 20781253.035 13671711.686 10 0 60238 4500.00000 0 -6202677.562 22178598.880 10928816.947 10 0 60238 5400.00000 0 -6560651.912 23303252.170 7973206.654 10 0 60238 6300.00000 0 -6692261.603 24105996.578 4862349.857 10 0 60238 7200.00000 0 -6640361.179 24547543.362 1656788.575 10 0 60238 8100.00000 0 -6455003.156 24600222.923 -1581048.612 10 0 60238 9000.00000 0 -6191072.491 24249206.309 -4788073.681 10 0 60238 9900.00000 0 -5905719.104 23493203.629 -7901781.735 10 0 60238 10800.00000 0 -5655698.883 22344608.682 -10861483.301 10 0 60238 11700.00000 0 -5494737.704 20829082.902 -13609500.790 10 0 60238 12600.00000 0 -5471032.020 18984595.804 -16092304.273 10 0 60238 13500.00000 0 -5624993.563 16859962.428 -18261563.261 10 0 60238 14400.00000 0 -5987335.080 14512939.753 -20075093.155 10 0 60238 15300.00000 0 -6577579.065 12007962.711 -21497677.488 10 0 60238 16200.00000 0 -7403053.131 9413615.518 -22501749.990 10 0 60238 17100.00000 0 -8458414.642 6799944.790 -23067923.646 10 0 60238 18000.00000 0 -9725724.521 4235727.189 -23185357.206 10 0 60238 18900.00000 0 -11175066.772 1785805.659 -22851953.011 10 0 60238 19800.00000 0 -12765687.181 -491395.169 -22074383.430 10 0 60238 20700.00000 0 -14447602.874 -2546071.851 -20867946.502 10 0 60238 21600.00000 0 -16163614.697 -4338872.990 -19256254.656 10 0 60238 22500.00000 0 -17851637.804 -5842283.790 -17270763.463 10 0 60238 23400.00000 0 -19447252.622 -7041508.814 -14950150.316 10 0 60238 24300.00000 0 -20886369.430 -7934818.617 -12339555.661 10 0 60238 25200.00000 0 -22107895.297 -8533348.304 -9489701.831 10 0 60238 26100.00000 0 -23056292.147 -8860358.843 -6455906.818 10 0 60238 27000.00000 0 -23683919.486 -8949994.269 -3297012.128 10 0 60238 27900.00000 0 -23953064.406 -8845588.703 -74245.377 10 0 60238 28800.00000 0 -23837574.598 -8597595.663 3149960.523 10 0 60238 29700.00000 0 -23324026.659 -8261227.588 6313169.117 10 0 60238 30600.00000 0 -22412381.301 -7893905.316 9354140.365 10 0 60238 31500.00000 0 -21116098.320 -7552624.887 12214006.193 10 0 60238 32400.00000 0 -19461706.437 -7291352.221 14837399.679 10 0 60238 33300.00000 0 -17487845.579 -7158554.900 17173516.940 10 0 60238 34200.00000 0 -15243820.750 -7194974.458 19177092.063 10 0 60238 35100.00000 0 -12787726.626 -7431732.537 20809267.130 10 0 60238 36000.00000 0 -10184219.499 -7888850.510 22038341.349 10 0 60238 36900.00000 0 -7502027.610 -8574245.148 22840385.346 10 0 60238 37800.00000 0 -4811301.632 -9483243.332 23199709.072 10 0 60238 38700.00000 0 -2180913.650 -10598637.551 23109174.244 10 0 60238 39600.00000 0 324184.636 -11891281.597 22570344.799 10 0 60238 40500.00000 0 2645435.960 -13321203.578 21593471.656 10 0 60238 41400.00000 0 4732881.849 -14839191.763 20197310.860 10 0 60238 42300.00000 0 6547005.966 -16388788.893 18408777.225 10 0 60238 43200.00000 0 8060139.770 -17908613.091 16262438.590 10 0 60238 44100.00000 0 9257371.624 -19334909.350 13799858.955 10 0 60238 45000.00000 0 10136920.969 -20604225.088 11068801.875 10 0 60238 45900.00000 0 10709961.499 -21656097.406 8122308.559 10 0 60238 46800.00000 0 10999900.504 -22435638.310 5017667.942 10 0 60238 47700.00000 0 11041144.737 -22895907.862 1815298.738 10 0 60238 48600.00000 0 10877405.177 -22999973.640 -1422434.378 10 0 60238 49500.00000 0 10559613.109 -22722567.846 -4632446.495 10 0 60238 50400.00000 0 10143536.793 -22051270.347 -7752174.909 10 0 60238 51300.00000 0 9687201.154 -20987166.123 -10720812.563 10 0 60238 52200.00000 0 9248221.471 -19544948.145 -13480506.873 10 0 60238 53100.00000 0 8881165.818 -17752460.535 -15977499.052 10 0 60238 54000.00000 0 8635059.618 -15649700.889 -18163180.527 10 0 60238 54900.00000 0 8551139.374 -13287323.793 -19995044.994 10 0 60238 55800.00000 0 8660951.649 -10724708.771 -21437517.113 10 0 60238 56700.00000 0 8984878.232 -8027674.237 -22462641.754 10 0 60238 57600.00000 0 9531149.971 -5265933.668 -23050620.786 10 0 60238 58500.00000 0 10295390.606 -2510400.765 -23190187.717 10 0 60238 59400.00000 0 11260709.315 169543.828 -22878813.905 10 0 60238 60300.00000 0 12398337.357 2708710.618 -22122743.440 10 0 60238 61200.00000 0 13668781.234 5048574.155 -20936857.122 10 0 60238 62100.00000 0 15023443.131 7139458.999 -19344369.275 10 0 60238 63000.00000 0 16406639.980 8942349.436 -17376364.143 10 0 60238 63900.00000 0 17757935.887 10430249.573 -15071181.661 10 0 60238 64800.00000 0 19014689.847 11589039.429 -12473665.078 10 0 60238 65700.00000 0 20114711.842 12417793.774 -9634285.369 10 0 60238 66600.00000 0 20998916.127 12928552.793 -6608159.686 10 0 60238 67500.00000 0 21613860.783 13145556.474 -3453982.919 10 0 60238 68400.00000 0 21914067.585 13103976.795 -232892.954 10 0 60238 69300.00000 0 21864025.448 12848202.503 2992708.539 10 0 60238 70200.00000 0 21439793.998 12429749.644 6160357.372 10 0 60238 71100.00000 0 20630140.514 11904886.354 9208727.396 10 0 60238 72000.00000 0 19437162.779 11332071.978 12078807.740 10 0 60238 72900.00000 0 17876371.711 10769318.068 14715034.741 10 0 60238 73800.00000 0 15976229.831 10271581.796 17066357.557 10 0 60238 74700.00000 0 13777163.984 9888300.805 19087217.750 10 0 60238 75600.00000 0 11330092.290 9661172.574 20738424.807 10 0 60238 76500.00000 0 8694525.068 9622271.165 21987911.496 10 0 60238 77400.00000 0 5936316.991 9792580.369 22811355.023 10 0 60238 78300.00000 0 3125161.935 10181005.165 23192652.329 10 0 60238 79200.00000 0 331932.660 10783903.711 23124240.309 10 0 60238 80100.00000 0 -2374025.985 11585160.782 22607254.343 10 0 60238 81000.00000 0 -4927539.444 12556801.152 21651521.255 10 0 60238 81900.00000 0 -7270072.808 13660119.069 20275385.663 10 0 60238 82800.00000 0 -9351925.139 14847278.310 18505371.667 10 0 60238 83700.00000 0 -11134057.710 16063317.408 16375684.850 10 0 60238 84600.00000 0 -12589479.847 17248477.217 13927562.670 10 0 60238 85500.00000 0 -13704134.103 18340753.837 11208484.487 99